Lafayette, IN

2:43 PM EDT on August 29, 2016 (GMT -0400)
Purdue Univ

Weather History for KLAF - May, 2014

Change the Weather History Date:

Tuesday, May 13, 2014

  Actual Average Record
Temperature  
Mean Temperature 63 °F 61 °F  
Max Temperature 73 °F 72 °F 87 °F (2005)
Min Temperature 52 °F 50 °F 31 °F (2013)
Degree Days  
Heating Degree Days 2 6  
Month to date heating degree days 72 92  
Since 1 July heating degree days 6440 5582  
Cooling Degree Days 0 2  
Month to date cooling degree days 30 15  
Year to date cooling degree days 31 28  
Growing Degree Days 12 (Base 50)    
Moisture  
Dew Point 59 °F    
Average Humidity 83    
Maximum Humidity 90    
Minimum Humidity 76    
Precipitation  
Precipitation 0.06 in 0.14 in 2.28 in (1955)
Month to date precipitation 2.25 1.70  
Year to date precipitation 11.29 11.53  
Sea Level Pressure  
Sea Level Pressure 30.00 in    
Wind  
Wind Speed 9 mph (West)    
Max Wind Speed 20 mph    
Max Gust Speed 24 mph    
Visibility 9 miles    
Events Rain , Thunderstorm    
T = Trace of Precipitation, MM = Missing Value Source: NWS Daily Summary

Daily Weather History Graph

Daily Weather History Graph

Search for Another Location

Airport or City:

Trip Planner

Search our weather history database for the weather conditions in past years. The results will help you decide how hot, cold, wet, or windy it might be!

Date:

Astronomy

May. 13, 2014 Rise Set
Actual Time 6:33 AM EDT 8:55 PM EDT
Civil Twilight 6:02 AM EDT 9:26 PM EDT
Nautical Twilight 5:24 AM EDT 10:04 PM EDT
Astronomical Twilight 4:42 AM EDT 10:46 PM EDT
Moon 7:56 PM EDT (5/13) 5:49 AM EDT (5/13)
Length of Visible Light 15h 23m
Length of Day
14h 22m
Waxing Gibbous, 98% of the Moon is Illuminated
May 13
Waxing Gibbous
May 14
Full
May 21
Last Quarter
May 28
New
Jun 5
First Quarter

Hourly Weather History & Observations

Time (EDT) Temp. Dew Point Humidity Pressure Visibility Wind Dir Wind Speed Gust Speed Precip Events Conditions
12:54 AM 73.0 °F 66.9 °F 81% 29.93 in 10.0 mi South 6.9 mph - N/A   Overcast
2:54 AM 71.1 °F 66.0 °F 84% 29.91 in 10.0 mi NW 8.1 mph - N/A   Overcast
3:06 AM 71.1 °F 63.0 °F 75% 29.92 in 10.0 mi North - - N/A   Overcast
3:54 AM 68.0 °F 60.1 °F 76% 29.92 in 10.0 mi WNW 4.6 mph - N/A   Overcast
4:54 AM 66.9 °F 61.0 °F 81% 29.91 in 10.0 mi North 3.5 mph - N/A   Overcast
5:54 AM 66.0 °F 62.1 °F 87% 29.89 in 10.0 mi ESE 3.5 mph - N/A Thunderstorm Overcast
6:12 AM 66.0 °F 62.1 °F 87% 29.91 in 10.0 mi East 5.8 mph - N/A   Overcast
6:54 AM 68.0 °F 64.9 °F 90% 29.91 in 10.0 mi South 3.5 mph - N/A   Overcast
7:54 AM 70.0 °F 66.0 °F 87% 29.92 in 10.0 mi WSW 5.8 mph - N/A   Overcast
8:01 AM 70.0 °F 66.9 °F 90% 29.94 in 8.0 mi WSW 5.8 mph - 0.00 in Rain Light Rain
9:37 AM 72.0 °F 66.9 °F 84% 29.93 in 10.0 mi SSW 9.2 mph - N/A   Overcast
9:54 AM 72.0 °F 66.9 °F 84% 29.92 in 10.0 mi SW 11.5 mph 17.3 mph N/A   Overcast
10:54 AM 69.1 °F 66.9 °F 93% 29.95 in 6.0 mi WSW 9.2 mph - 0.01 in Rain Light Rain
12:54 PM 70.0 °F 64.0 °F 81% 29.97 in 7.0 mi WSW 13.8 mph - 0.01 in Rain Light Rain
1:54 PM 72.0 °F 66.0 °F 81% 29.96 in 10.0 mi SW 10.4 mph - 0.00 in   Mostly Cloudy
2:07 PM 71.1 °F 64.9 °F 81% 29.98 in 10.0 mi WNW 15.0 mph 21.9 mph N/A   Mostly Cloudy
2:25 PM 66.9 °F 64.0 °F 90% 30.00 in 10.0 mi West 12.7 mph - 0.00 in Rain Light Rain
2:33 PM 66.9 °F 64.0 °F 90% 30.00 in 10.0 mi WNW 13.8 mph - 0.00 in Rain Light Rain
2:54 PM 66.9 °F 63.0 °F 87% 29.99 in 10.0 mi West 16.1 mph - 0.00 in   Overcast
3:54 PM 64.0 °F 59.0 °F 84% 30.01 in 10.0 mi West 12.7 mph - N/A   Overcast
4:54 PM 62.1 °F 57.9 °F 86% 30.02 in 10.0 mi West 12.7 mph - N/A   Overcast
5:54 PM 59.0 °F 55.0 °F 87% 30.04 in 8.0 mi WNW 13.8 mph - N/A   Overcast
6:18 PM 57.9 °F 54.0 °F 87% 30.06 in 10.0 mi WNW 12.7 mph - 0.00 in Rain Light Rain
6:32 PM 57.0 °F 54.0 °F 89% 30.07 in 6.0 mi West 9.2 mph - 0.00 in   Overcast
6:39 PM 57.0 °F 54.0 °F 89% 30.06 in 8.0 mi WNW 9.2 mph - 0.00 in   Overcast
6:47 PM 57.9 °F 54.0 °F 87% 30.06 in 8.0 mi WNW 11.5 mph - 0.00 in   Overcast
6:54 PM 57.0 °F 54.0 °F 89% 30.06 in 6.0 mi West 10.4 mph - 0.00 in Rain Light Rain
7:35 PM 55.9 °F 53.1 °F 90% 30.08 in 6.0 mi WNW 9.2 mph - 0.00 in Rain Light Rain
7:54 PM 55.0 °F 52.0 °F 89% 30.08 in 10.0 mi WNW 8.1 mph - 0.00 in   Overcast
8:54 PM 55.0 °F 51.1 °F 86% 30.09 in 10.0 mi WNW 5.8 mph - 0.00 in   Overcast
9:31 PM 54.0 °F 51.1 °F 90% 30.12 in 10.0 mi WNW 9.2 mph - N/A   Overcast
9:54 PM 54.0 °F 50.0 °F 86% 30.12 in 10.0 mi WNW 10.4 mph - N/A   Overcast
10:54 PM 53.1 °F 48.9 °F 86% 30.14 in 10.0 mi NW 10.4 mph - N/A   Overcast
11:51 PM 51.8 °F 48.2 °F 88% 30.15 in 10.0 mi NW 9.2 mph - 0.01 in   Mostly Cloudy
11:54 PM 52.0 °F 48.9 °F 89% 30.14 in 10.0 mi NW 6.9 mph - 0.01 in   Mostly Cloudy